Terug naar catalogus

FENGYUN 1C DEB

LostPO
NORAD 31960·DEBRIS·🇨🇳 China

Gelanceerd May 10, 1999 vanaf Taiyuan Satellite Launch Center

Loading…

Volgende Passages (komende 24 uur)

TLE

VerouderdSource: Space-Track

Epoch: Oct 18, 2021, 15:27 UTC

1 31960U 99025CNM 21291.64411027  .00000474  00000-0  34527-3 0  9993
2 31960  99.6903 232.9756 0148334 260.2517  98.1864 13.96575990726282

Volg FENGYUN 1C DEB in realtime met AllMySat

Download on the App Store